Colima, Mexico

2:53 AM CST on January 23, 2018 (GMT -0600)
Colima

Weather History for MMIA - July, 2013

Change the Weather History Date:

Wednesday, July 17, 2013

  Actual Average Record
Temperature  
Mean Temperature 80 °F -  
Max Temperature 91 °F 82 °F 97 °F (2015)
Min Temperature 69 °F 68 °F 66 °F (2004)
Cooling Degree Days 15    
Growing Degree Days 30 (Base 50)    
Moisture  
Dew Point 70 °F    
Average Humidity 79    
Maximum Humidity 96    
Minimum Humidity 44    
Precipitation  
Precipitation 0.08 in - - ()
Sea Level Pressure  
Sea Level Pressure 30.01 in    
Wind  
Wind Speed 2 mph ()    
Max Wind Speed 14 mph    
Max Gust Speed -    
Visibility 6.5 miles    
Events Rain , Thunderstorm    
Averages and records for this station are not official NWS values.
T = Trace of Precipitation, MM = Missing Value Source: Averaged Metar Reports

Daily Weather History Graph

Daily Weather History Graph

Search for Another Location

Airport or City:

Trip Planner

Search our weather history database for the weather conditions in past years. The results will help you decide how hot, cold, wet, or windy it might be!

Date:

Astronomy

Jul. 17, 2013 Rise Set
Actual Time 7:25 AM CDT 8:35 PM CDT
Civil Twilight 7:01 AM CDT 8:59 PM CDT
Nautical Twilight 6:33 AM CDT 9:27 PM CDT
Astronomical Twilight 6:04 AM CDT 9:56 PM CDT
Moon 3:36 PM CDT (7/17) 2:20 AM CDT (7/17)
Length of Visible Light 13h 57m
Length of Day
13h 09m
Waxing Gibbous, 67% of the Moon is Illuminated
Jul 17
Waxing Gibbous
Jul 22
Full
Jul 29
Last Quarter
Aug 6
New
Aug 14
First Quarter

Hourly Weather History & Observations

Time (CDT) Temp. Heat Index Dew Point Humidity Pressure Visibility Wind Dir Wind Speed Gust Speed Precip Events Conditions
12:49 AM 77 °F - 73 °F 83% 29.99 in 6 mi SW 2.2 mph - -   Haze
3:48 AM 74 °F - 73 °F 95% 29.97 in 4 mi Calm Calm - -   Haze
6:03 AM 71.6 °F - 66.2 °F 83% 30.05 in 8.0 mi Calm Calm - N/A   Mostly Cloudy
6:49 AM 73 °F - 72 °F 96% 29.97 in 4 mi NE 2.2 mph - -   Haze
6:50 AM 69.8 °F - 66.2 °F 88% 30.05 in 8.0 mi Calm Calm - N/A   Mostly Cloudy
7:00 AM 73 °F - 72 °F 96% 29.97 in 4 mi NE 1.2 mph - -   Haze
7:47 AM 69.8 °F - 66.2 °F 88% 30.03 in 8.0 mi North 13.8 mph - N/A   Mostly Cloudy
8:43 AM 71.6 °F - 64.4 °F 78% 30.03 in 8.0 mi North 9.2 mph - N/A   Mostly Cloudy
9:54 AM 73.4 °F - 66.2 °F 78% 30.05 in 8.0 mi Calm Calm - N/A   Mostly Cloudy
10:45 AM 78.8 °F - 69.8 °F 74% 30.07 in 8.0 mi Calm Calm - N/A   Mostly Cloudy
11:45 AM 78.8 °F - 69.8 °F 74% 30.06 in 8.0 mi Calm Calm - N/A   Mostly Cloudy
12:40 PM 87 °F - 69 °F 46% 30.01 in 6 mi NW 2.2 mph - -   Haze
12:42 PM 78.8 °F - 69.8 °F 74% 30.07 in 8.0 mi Calm Calm - N/A   Mostly Cloudy
2:47 PM 80.6 °F 83.2 °F 68.0 °F 65% 30.03 in 8.0 mi WSW 9.2 mph - N/A   Mostly Cloudy
3:43 PM 82.4 °F 86.3 °F 69.8 °F 66% 30.02 in 6.0 mi WSW 9.2 mph - N/A Thunderstorm Mostly Cloudy
3:50 PM 89 °F - 70 °F 44% 29.92 in 6 mi South 4.5 mph - -   Haze
4:45 PM 73.4 °F - 69.8 °F 88% 30.02 in 4.0 mi Calm Calm - N/A Rain Light Rain
5:23 PM 73.4 °F - 69.8 °F 88% 30.03 in 5.0 mi Calm Calm - N/A   Overcast
5:48 PM 75.2 °F - 69.8 °F 83% 30.03 in 6.0 mi Calm Calm - N/A   Overcast
6:48 PM 73.4 °F - 69.8 °F 88% 30.02 in 6.0 mi Calm Calm - N/A   Mostly Cloudy
6:55 PM 81 °F - 69 °F 59% 29.91 in 6 mi SE 4.5 mph - - Rain Light Drizzle
7:41 PM 75.2 °F - 71.6 °F 89% 30.04 in 6.0 mi Calm Calm - N/A   Mostly Cloudy
8:45 PM 73.4 °F - 69.8 °F 88% 30.05 in 8.0 mi Calm Calm - N/A   Overcast
9:50 PM 78 °F - 74 °F 86% 29.96 in 6 mi East 2.2 mph - -   Haze